Flag for U.S.A. Weather past 2 weeks in Hudson, Wisconsin, U.S.A.

Now
76 °F

Passing clouds.


Feels Like: 76 °F
Forecast: 71 / 87 °F
Wind: 8 mph from Southeast

Location: St. Paul Downtown Holman Field

Current Time: Sep 5, 2015 at 2:52:05 AM

Latest Report: Sep 5, 2015 at 1:53 AM


Visibility: 10 mi

Pressure: 29.92 "Hg

Humidity: 85%

Dew point: 71 °F

Location of HudsonLocation

Historic Weather in Hudson — Graph

°F

Hudson temperature yesterday

Maximum temperature yesterday: 87 °F (at 3:53 PM)
Minimum temperature yesterday: 70 °F (at 5:53 AM)
Average temperature yesterday: 78 °F

Past Weeks' High & Low Weather Summary

 TemperatureHumidityPressure
High87 °F (Sep 4, 3:53 PM)100% (Aug 30, 12:53 AM)30.20 "Hg (Aug 30, 12:53 AM)
Low51 °F (Aug 26, 6:53 AM)40% (Aug 25, 4:53 PM)29.67 "Hg (Aug 22, 5:53 PM)
Average69 °F77%29.94 "Hg
* Reported Aug 21 12:53 AM — Sep 5 12:53 AM, Hudson, Weather by CustomWeather, © 2015

Note: Actual official high and low records may vary slightly from our data, if they occured in-between our weather recording intervals... More about our weather records

Advertising

Hudson weather history for previous 24 hours

 ConditionsComfort  
Time TempWeatherWind HumidityBarometerVisibility
12:53 AM
Sat, Sep 5
76 °FPassing clouds.7 mph88%29.92 "Hg10 mi
11:53 PM
Fri, Sep 4
76 °FPassing clouds.3 mph88%29.92 "Hg10 mi
10:53 PM78 °FClear.5 mph82%29.92 "Hg10 mi
9:53 PM80 °FPassing clouds.8 mph79%29.91 "Hg10 mi
8:53 PM81 °FPassing clouds.8 mph77%29.90 "Hg10 mi
7:53 PM82 °FPartly sunny.9 mph74%29.89 "Hg10 mi
6:53 PM84 °FPartly sunny.9 mph70%29.89 "Hg10 mi
5:53 PM84 °FPartly sunny.9 mph70%29.88 "Hg10 mi
4:53 PM87 °FSunny.15 mph65%29.87 "Hg10 mi
3:53 PM87 °FSunny.17 mph65%29.87 "Hg10 mi
2:53 PM86 °FSunny.14 mph65%29.88 "Hg10 mi
1:53 PM86 °FSunny.10 mph67%29.90 "Hg10 mi
12:53 PM83 °FPassing clouds.14 mph72%29.90 "Hg10 mi
11:53 AM81 °FSunny.9 mph74%29.91 "Hg10 mi
10:53 AM78 °FSunny.10 mph76%29.92 "Hg10 mi
9:53 AM76 °FSunny.14 mph80%29.93 "Hg10 mi
8:53 AM73 °FPassing clouds.10 mph84%29.93 "Hg10 mi
7:53 AM70 °FPartly sunny.10 mph90%29.92 "Hg10 mi
6:53 AM70 °FPassing clouds.8 mph87%29.91 "Hg10 mi
5:53 AM70 °FClear.10 mph90%29.90 "Hg10 mi
4:53 AM71 °FClear.10 mph87%29.90 "Hg10 mi
3:53 AM71 °FClear.10 mph90%29.90 "Hg10 mi
2:53 AM71 °FClear.10 mph90%29.90 "Hg10 mi
Weather by CustomWeather, © 2015

See weather overviewHow to use our weather pages